Weather History for Linden, NJ

Change the Weather History Date:

Sunday, March 24, 2013

  Actual Average (KEWR) Record (KEWR)
Temperature  
Mean Temperature 40 °F 45 °F  
Max Temperature 48 °F 53 °F 77 °F (1988)
Min Temperature 33 °F 36 °F 16 °F (1940)
Degree Days  
Heating Degree Days 24 20  
Month to date heating degree days 576  
Since 1 July heating degree days 4211  
Cooling Degree Days 0 0  
Month to date cooling degree days 0  
Year to date cooling degree days 0  
Moisture  
Dew Point 21 °F    
Average Humidity 47    
Maximum Humidity 60    
Minimum Humidity 33    
Precipitation  
Precipitation 0.00 in 0.14 in 1.38 in (1969)
Month to date precipitation 3.17  
Year to date precipitation 9.59  
Snow  
Snow 0.00 in 0.10 in 0.70 in (1956)
Month to date snowfall 4.0  
Since 1 July snowfall 27.0  
Snow Depth -    
Sea Level Pressure  
Sea Level Pressure 29.85 in    
Wind  
Wind Speed 8 mph (NW)    
Max Wind Speed 16 mph    
Max Gust Speed 22 mph    
Visibility 10 miles    
Events      
T = Trace of Precipitation, MM = Missing Value Source: NWS Daily Summary

Daily Weather History Graph

Daily Weather History Graph

Search for Another Location

Airport:

Trip Planner

Search our weather history database for the weather conditions in past years. The results will help you decide how hot, cold, wet, or windy it might be!

Date:

Astronomy

Mar. 24, 2013 Rise Set
Actual Time 6:53 AM EDT 7:13 PM EDT
Civil Twilight 6:26 AM EDT 7:40 PM EDT
Nautical Twilight 5:54 AM EDT 8:13 PM EDT
Astronomical Twilight 5:21 AM EDT 8:45 PM EDT
Moon 4:38 PM EDT (3/24) 5:02 AM EDT (3/24)
Length of Visible Light 13h 14m
Length of Day
12h 20m
Waxing Gibbous, 91% of the Moon is Illuminated
Mar 24
Waxing Gibbous
Mar 27
Full
Apr 3
Last Quarter
Apr 10
New
Apr 18
First Quarter

Hourly Weather History & Observations

Time (EDT) Temp. Windchill Dew Point Humidity Pressure Visibility Wind Dir Wind Speed Gust Speed Precip Events Conditions
12:15 AM 38.8 °F 32.1 °F 17.6 °F 42% 29.94 in 10.0 mi NW 10.4 mph 18.4 mph N/A   Clear
12:35 AM 37.9 °F 33.5 °F 18.5 °F 46% 29.95 in 10.0 mi WNW 5.8 mph - N/A   Clear
12:55 AM 38.1 °F 30.7 °F 18.5 °F 45% 29.94 in 10.0 mi NW 11.5 mph 19.6 mph N/A   Clear
1:15 AM 38.3 °F 29.3 °F 18.1 °F 44% 29.94 in 10.0 mi NW 16.1 mph 21.9 mph N/A   Clear
1:35 AM 37.4 °F 29.3 °F 18.3 °F 46% 29.93 in 10.0 mi NW 12.7 mph - N/A   Clear
1:55 AM 36.9 °F 30.1 °F 18.3 °F 47% 29.94 in 10.0 mi NW 9.2 mph - N/A   Clear
2:15 AM 36.7 °F 29.9 °F 18.5 °F 48% 29.94 in 10.0 mi NW 9.2 mph 16.1 mph N/A   Clear
2:35 AM 36.0 °F 32.1 °F 18.7 °F 50% 29.93 in 10.0 mi NW 4.6 mph - N/A   Clear
2:55 AM 35.6 °F 31.7 °F 19.2 °F 51% 29.92 in 10.0 mi WNW 4.6 mph - N/A   Clear
3:15 AM 34.7 °F 29.6 °F 19.6 °F 54% 29.91 in 10.0 mi WNW 5.8 mph - N/A   Clear
3:35 AM 35.2 °F 30.3 °F 18.9 °F 51% 29.92 in 10.0 mi West 5.8 mph - N/A   Clear
3:55 AM 34.9 °F 32.0 °F 19.2 °F 53% 29.93 in 10.0 mi West 3.5 mph - N/A   Clear
4:15 AM 34.2 °F 28.2 °F 19.9 °F 56% 29.93 in 10.0 mi West 6.9 mph - N/A   Clear
4:35 AM 34.7 °F 29.6 °F 19.2 °F 53% 29.93 in 10.0 mi West 5.8 mph - N/A   Clear
4:55 AM 34.2 °F 27.5 °F 19.6 °F 55% 29.94 in 10.0 mi West 8.1 mph - N/A   Clear
5:15 AM 34.0 °F 28.8 °F 19.0 °F 54% 29.94 in 10.0 mi West 5.8 mph - N/A   Clear
5:35 AM 33.6 °F 28.4 °F 19.4 °F 56% 29.94 in 10.0 mi West 5.8 mph - N/A   Clear
5:55 AM 33.6 °F 29.4 °F 19.4 °F 56% 29.94 in 10.0 mi West 4.6 mph - N/A   Clear
6:15 AM 33.1 °F 27.7 °F 19.4 °F 57% 29.94 in 10.0 mi West 5.8 mph - N/A   Clear
6:35 AM 34.0 °F 28.8 °F 19.0 °F 54% 29.94 in 10.0 mi West 5.8 mph - N/A   Clear
6:55 AM 33.3 °F 26.4 °F 19.4 °F 57% 29.94 in 10.0 mi West 8.1 mph - N/A   Clear
7:15 AM 34.5 °F 28.6 °F 19.0 °F 53% 29.95 in 10.0 mi West 6.9 mph - N/A   Clear
7:35 AM 34.7 °F 27.5 °F 19.4 °F 54% 29.95 in 10.0 mi West 9.2 mph - N/A   Clear
7:55 AM 34.9 °F 27.7 °F 19.9 °F 55% 29.95 in 10.0 mi West 9.2 mph - N/A   Clear
8:15 AM 35.6 °F 29.2 °F 20.3 °F 54% 29.96 in 10.0 mi West 8.1 mph - N/A   Clear
8:35 AM 36.7 °F 29.9 °F 20.1 °F 51% 29.96 in 10.0 mi WNW 9.2 mph - N/A   Clear
8:55 AM 37.8 °F 30.7 °F 20.1 °F 49% 29.96 in 10.0 mi West 10.4 mph - N/A   Clear
9:15 AM 38.8 °F 32.6 °F 20.8 °F 48% 29.94 in 10.0 mi NW 9.2 mph 18.4 mph N/A   Unknown
9:35 AM 39.2 °F 33.0 °F 20.3 °F 47% 29.95 in 10.0 mi NW 9.2 mph - N/A   Clear
9:55 AM 40.3 °F 34.9 °F 19.8 °F 44% 29.94 in 10.0 mi NNW 8.1 mph 18.4 mph N/A   Clear
10:15 AM 41.2 °F 34.1 °F 20.1 °F 43% 29.94 in 10.0 mi NW 12.7 mph 18.4 mph N/A   Clear
10:35 AM 41.5 °F 34.2 °F 19.9 °F 42% 29.93 in 10.0 mi NW 13.8 mph 19.6 mph N/A   Clear
11:15 AM 43.3 °F 36.5 °F 20.7 °F 40% 29.90 in 10.0 mi NW 13.8 mph 19.6 mph N/A   Clear
11:35 AM 43.9 °F 38.3 °F 20.7 °F 40% 29.89 in 10.0 mi NW 10.4 mph 18.4 mph N/A   Clear
11:55 AM 44.1 °F 38.1 °F 21.0 °F 40% 29.88 in 10.0 mi North 11.5 mph 17.3 mph N/A   Clear
12:15 PM 45.3 °F 40.1 °F 21.4 °F 39% 29.86 in 10.0 mi NW 10.4 mph 18.4 mph N/A   Clear
1:15 PM 46.4 °F 43.5 °F 21.2 °F 37% 29.86 in 10.0 mi NNW 5.8 mph - N/A   Clear
1:35 PM 46.9 °F - 21.2 °F 36% 29.85 in 10.0 mi NW 8.1 mph - N/A   Clear
2:15 PM 47.5 °F - 22.1 °F 37% 29.80 in 10.0 mi NNW 5.8 mph - N/A   Clear
2:35 PM 47.7 °F - 22.1 °F 37% 29.78 in 10.0 mi NW 8.1 mph - N/A   Clear
3:15 PM 47.5 °F - 21.2 °F 35% 29.75 in 10.0 mi ENE 8.1 mph - N/A   Clear
3:35 PM 48.2 °F - 20.8 °F 34% 29.75 in 10.0 mi NNE 4.6 mph - N/A   Clear
3:55 PM 48.2 °F - 20.7 °F 34% 29.74 in 10.0 mi NE 3.5 mph - N/A   Clear
4:15 PM 47.8 °F - 20.8 °F 34% 29.73 in 10.0 mi NNE 6.9 mph - N/A   Clear
4:35 PM 47.7 °F - 19.9 °F 33% 29.73 in 10.0 mi Calm Calm - N/A   Clear
4:55 PM 48.2 °F - 20.3 °F 33% 29.72 in 10.0 mi NE 6.9 mph - N/A   Clear
5:15 PM 48.0 °F - 20.7 °F 34% 29.71 in 10.0 mi ENE 8.1 mph - N/A   Clear
5:35 PM 47.8 °F - 20.5 °F 34% 29.72 in 10.0 mi Calm Calm - N/A   Clear
6:15 PM 47.7 °F - 21.4 °F 35% 29.72 in 10.0 mi East 8.1 mph - N/A   Clear
6:35 PM 47.3 °F - 21.2 °F 36% 29.72 in 10.0 mi NE 4.6 mph - N/A   Clear
6:55 PM 47.1 °F - 21.2 °F 36% 29.71 in 10.0 mi NE 9.2 mph - N/A   Clear
7:15 PM 46.8 °F - 21.2 °F 36% 29.72 in 10.0 mi NNE 6.9 mph - N/A   Clear
7:35 PM 44.1 °F 40.8 °F 26.2 °F 50% 29.74 in 10.0 mi SE 5.8 mph - N/A   Clear
7:55 PM 43.0 °F 39.5 °F 29.1 °F 58% 29.75 in 10.0 mi SE 5.8 mph - N/A   Clear
8:15 PM 42.4 °F 38.8 °F 29.3 °F 60% 29.75 in 10.0 mi SE 5.8 mph - N/A   Clear
8:35 PM 42.4 °F 38.1 °F 28.4 °F 58% 29.76 in 10.0 mi SE 6.9 mph - N/A   Clear
8:55 PM 42.1 °F 39.2 °F 27.5 °F 56% 29.75 in 10.0 mi SE 4.6 mph - N/A   Clear
9:15 PM 41.7 °F - 28.0 °F 58% 29.76 in 10.0 mi Calm Calm - N/A   Clear
9:35 PM 41.9 °F - 27.0 °F 55% 29.76 in 10.0 mi Calm Calm - N/A   Clear
9:55 PM 41.7 °F - 27.3 °F 57% 29.76 in 10.0 mi Calm Calm - N/A   Clear
10:15 PM 41.5 °F - 27.3 °F 57% 29.76 in 10.0 mi Calm Calm - N/A   Clear
10:35 PM 41.5 °F - 28.0 °F 59% 29.76 in 10.0 mi Calm Calm - N/A   Clear
10:55 PM 41.4 °F - 27.5 °F 58% 29.75 in 10.0 mi Calm Calm - N/A   Clear
11:15 PM 41.0 °F - 26.6 °F 57% 29.74 in 10.0 mi Calm Calm - N/A   Clear
11:35 PM 40.5 °F - 26.2 °F 57% 29.73 in 10.0 mi Calm Calm - N/A   Clear